Weather History for K05U - February, 2014

Change the Weather History Date:

Friday, February 28, 2014

  Actual Average Record
Temperature  
Mean Temperature 36 °F -  
Max Temperature 44 °F - - ()
Min Temperature 28 °F - - ()
Degree Days  
Heating Degree Days 29    
Moisture  
Dew Point 30 °F    
Average Humidity 79    
Maximum Humidity 93    
Minimum Humidity 49    
Precipitation  
Precipitation 0.07 in - - ()
Sea Level Pressure  
Sea Level Pressure 29.67 in    
Wind  
Wind Speed 7 mph (SSE)    
Max Wind Speed 24 mph    
Max Gust Speed 30 mph    
Visibility 10 miles    
Events      
T = Trace of Precipitation, MM = Missing Value Source: NWS Daily Summary

Daily Weather History Graph

Daily Weather History Graph

Search for Another Location

Airport or City:

Trip Planner

Search our weather history database for the weather conditions in past years. The results will help you decide how hot, cold, wet, or windy it might be!

Date:

Astronomy

Feb. 28, 2014 Rise Set
Actual Time 6:18 AM PST 5:35 PM PST
Civil Twilight 5:51 AM PST 6:02 PM PST
Nautical Twilight 5:20 AM PST 6:33 PM PST
Astronomical Twilight 4:49 AM PST 7:04 PM PST
Moon 5:35 AM PST (2/28) 5:17 PM PST (2/28)
Length of Visible Light 12h 10m
Length of Day
11h 16m
Waning Crescent, 0% of the Moon is Illuminated
Feb 28
Waning Crescent
Mar 1
New
Mar 8
First Quarter
Mar 16
Full
Mar 23
Last Quarter

Hourly Weather History & Observations

Time (PST) Temp. Windchill Dew Point Humidity Pressure Visibility Wind Dir Wind Speed Gust Speed Precip Events Conditions
12:15 AM 28.4 °F - 26.6 °F 93% 29.84 in 10.0 mi Calm Calm - N/A   Clear
12:35 AM 28.4 °F 23.3 °F 24.8 °F 86% 29.83 in 10.0 mi SSE 4.6 mph - N/A   Clear
12:55 AM 28.4 °F - 24.8 °F 86% 29.82 in 10.0 mi Calm Calm - N/A   Clear
1:15 AM 28.4 °F - 24.8 °F 86% 29.83 in 10.0 mi Calm Calm - N/A   Clear
1:35 AM 28.4 °F - 24.8 °F 86% 29.83 in 10.0 mi Calm Calm - N/A   Clear
1:55 AM 28.4 °F 22.2 °F 24.8 °F 86% 29.83 in 10.0 mi SW 5.8 mph - N/A   Clear
2:15 AM 28.4 °F 23.3 °F 24.8 °F 86% 29.81 in 10.0 mi SW 4.6 mph - N/A   Clear
2:35 AM 28.4 °F 24.6 °F 26.6 °F 93% 29.80 in 10.0 mi SE 3.5 mph - N/A   Clear
2:55 AM 28.4 °F 21.2 °F 26.6 °F 93% 29.79 in 10.0 mi SSW 6.9 mph - N/A   Clear
3:15 AM - - - N/A% 29.78 in 10.0 mi SW 5.8 mph - N/A   Clear
3:35 AM - - - N/A% 29.79 in 10.0 mi SW 6.9 mph - N/A   Clear
3:55 AM - - - N/A% 29.78 in 10.0 mi Calm Calm - N/A   Clear
4:15 AM - - - N/A% 29.77 in 10.0 mi Calm Calm - N/A   Clear
4:35 AM - - - N/A% 29.77 in 10.0 mi Calm Calm - N/A   Mostly Cloudy
4:55 AM - - - N/A% 29.76 in 10.0 mi Calm Calm - N/A   Mostly Cloudy
5:15 AM - - - N/A% 29.76 in 10.0 mi Calm Calm - N/A   Mostly Cloudy
5:35 AM - - - N/A% 29.75 in 10.0 mi Calm Calm - N/A   Mostly Cloudy
5:55 AM - - - N/A% 29.75 in 10.0 mi NNW 4.6 mph - N/A   Overcast
6:15 AM - - - N/A% 29.75 in 10.0 mi Calm Calm - N/A   Overcast
6:35 AM - - - N/A% 29.74 in 10.0 mi WNW 3.5 mph - N/A   Overcast
6:55 AM 30.2 °F - 28.4 °F 93% 29.75 in 10.0 mi Calm Calm - N/A   Overcast
7:15 AM 32.0 °F - 28.4 °F 87% 29.75 in 10.0 mi Calm Calm - N/A   Mostly Cloudy
7:35 AM 32.0 °F 25.6 °F 28.4 °F 87% 29.74 in 10.0 mi SE 6.9 mph - N/A   Partly Cloudy
7:55 AM 35.6 °F 32.8 °F 28.4 °F 75% 29.74 in 10.0 mi SW 3.5 mph - N/A   Clear
8:15 AM 33.8 °F - 28.4 °F 81% 29.73 in 10.0 mi Calm Calm - N/A   Clear
8:35 AM 37.4 °F 31.4 °F 26.6 °F 65% 29.73 in 10.0 mi South 8.1 mph - N/A   Scattered Clouds
8:55 AM 39.2 °F 30.8 °F 24.8 °F 56% 29.71 in 10.0 mi SSE 15.0 mph 19.6 mph N/A   Mostly Cloudy
9:15 AM 41.0 °F 31.9 °F 23.0 °F 49% 29.71 in 10.0 mi South 19.6 mph - N/A   Overcast
9:35 AM 41.0 °F 32.8 °F 24.8 °F 53% 29.71 in 10.0 mi South 16.1 mph 26.5 mph N/A   Overcast
9:55 AM 39.2 °F 28.5 °F 26.6 °F 61% 29.72 in 10.0 mi South 24.2 mph 27.6 mph N/A   Mostly Cloudy
10:15 AM 37.4 °F 27.5 °F 30.2 °F 75% 29.70 in 10.0 mi SSE 18.4 mph - N/A   Mostly Cloudy
10:35 AM 39.2 °F 28.7 °F 32.0 °F 75% 29.70 in 10.0 mi SSE 23.0 mph 29.9 mph N/A   Mostly Cloudy
10:55 AM 39.2 °F 29.3 °F 32.0 °F 75% 29.70 in 10.0 mi SSE 20.7 mph 25.3 mph N/A   Overcast
11:15 AM 41.0 °F 31.9 °F 32.0 °F 70% 29.71 in 10.0 mi SSE 19.6 mph 26.5 mph N/A   Mostly Cloudy
11:35 AM 41.0 °F 31.1 °F 32.0 °F 70% 29.69 in 10.0 mi SSE 23.0 mph - N/A   Mostly Cloudy
11:55 AM 41.0 °F 31.9 °F 32.0 °F 70% 29.69 in 10.0 mi SE 19.6 mph 26.5 mph N/A   Overcast
12:15 PM 41.0 °F 31.9 °F 32.0 °F 70% 29.68 in 10.0 mi SSE 19.6 mph 26.5 mph N/A   Overcast
12:35 PM 41.0 °F 33.1 °F 32.0 °F 70% 29.65 in 10.0 mi SSE 15.0 mph 23.0 mph N/A   Overcast
12:55 PM 44.6 °F 37.2 °F 32.0 °F 61% 29.65 in 10.0 mi SE 17.3 mph - N/A   Overcast
1:15 PM 41.0 °F 32.5 °F 32.0 °F 70% 29.66 in 10.0 mi SSE 17.3 mph - N/A   Mostly Cloudy
1:35 PM 41.0 °F 33.9 °F 32.0 °F 70% 29.65 in 10.0 mi SE 12.7 mph 19.6 mph N/A   Overcast
1:55 PM 41.0 °F 33.1 °F 32.0 °F 70% 29.63 in 10.0 mi SE 15.0 mph 19.6 mph N/A   Overcast
2:15 PM 39.2 °F 32.0 °F 33.8 °F 81% 29.63 in 10.0 mi SE 11.5 mph - N/A   Overcast
2:35 PM 39.2 °F 32.5 °F 33.8 °F 81% 29.61 in 10.0 mi SE 10.4 mph - N/A   Mostly Cloudy
2:55 PM 39.2 °F 31.2 °F 32.0 °F 75% 29.62 in 10.0 mi SE 13.8 mph - N/A   Mostly Cloudy
3:20 PM 39.2 °F 31.6 °F 32.0 °F 75% 29.63 in 10.0 mi SSE 12.7 mph - N/A   Overcast
3:35 PM 39.2 °F 31.6 °F 32.0 °F 75% 29.60 in 5.0 mi ESE 12.7 mph 16.1 mph N/A   Mostly Cloudy
3:55 PM 37.4 °F 31.4 °F 33.8 °F 87% 29.59 in 10.0 mi SE 8.1 mph - N/A   Scattered Clouds
4:15 PM 39.2 °F 35.0 °F 35.6 °F 87% 29.58 in 10.0 mi East 5.8 mph - N/A   Mostly Cloudy
4:35 PM 39.2 °F 33.6 °F 35.6 °F 87% 29.56 in 10.0 mi SE 8.1 mph - N/A   Mostly Cloudy
5:00 PM 39.2 °F 34.2 °F 33.8 °F 81% 29.56 in 10.0 mi SSE 6.9 mph 17.3 mph N/A   Overcast
5:20 PM 39.2 °F 33.0 °F 33.8 °F 81% 29.57 in 10.0 mi SSE 9.2 mph - N/A   Overcast
5:40 PM 39.2 °F 31.2 °F 32.0 °F 75% 29.58 in 10.0 mi SSE 13.8 mph 20.7 mph N/A   Overcast
6:00 PM 37.4 °F 32.1 °F 32.0 °F 81% 29.58 in 10.0 mi SSE 6.9 mph - N/A   Mostly Cloudy
6:15 PM 37.4 °F 28.9 °F 32.0 °F 81% 29.56 in 10.0 mi SSE 13.8 mph 17.3 mph N/A   Mostly Cloudy
6:40 PM 37.4 °F 29.3 °F 32.0 °F 81% 29.56 in 10.0 mi SSE 12.7 mph - N/A   Overcast
7:00 PM 37.4 °F 29.8 °F 32.0 °F 81% 29.54 in 10.0 mi SE 11.5 mph 17.3 mph N/A   Overcast
7:20 PM 37.4 °F 28.9 °F 32.0 °F 81% 29.53 in 10.0 mi SE 13.8 mph - N/A   Mostly Cloudy
7:40 PM 37.4 °F 29.3 °F 32.0 °F 81% 29.53 in 10.0 mi SE 12.7 mph - N/A   Overcast
8:00 PM 37.4 °F 29.8 °F 32.0 °F 81% 29.53 in 10.0 mi SE 11.5 mph - N/A   Overcast
8:20 PM 37.4 °F 30.8 °F 32.0 °F 81% 29.52 in 10.0 mi SE 9.2 mph - N/A   Overcast
8:40 PM 37.4 °F 32.8 °F 32.0 °F 81% 29.54 in 5.0 mi South 5.8 mph - 0.01 in   Overcast
8:55 PM 37.4 °F 32.1 °F 33.8 °F 87% 29.54 in 9.0 mi South 6.9 mph - 0.01 in   Overcast
9:20 PM 37.4 °F 31.4 °F 33.8 °F 87% 29.56 in 5.0 mi South 8.1 mph - 0.02 in   Overcast
9:40 PM 35.6 °F 29.9 °F 33.8 °F 93% 29.55 in 10.0 mi SE 6.9 mph - 0.03 in   Overcast
10:00 PM 35.6 °F 28.0 °F 32.0 °F 87% 29.52 in 10.0 mi East 10.4 mph - 0.03 in   Mostly Cloudy
10:20 PM 37.4 °F 29.8 °F 32.0 °F 81% 29.50 in 10.0 mi SE 11.5 mph - N/A   Overcast
10:40 PM 37.4 °F 33.8 °F 32.0 °F 81% 29.49 in 10.0 mi SSE 4.6 mph - N/A   Overcast
11:00 PM 37.4 °F 32.1 °F 32.0 °F 81% 29.50 in 10.0 mi SSE 6.9 mph - N/A   Overcast
11:20 PM 37.4 °F 29.8 °F 32.0 °F 81% 29.50 in 10.0 mi SSE 11.5 mph - N/A   Overcast
11:40 PM 35.6 °F 27.1 °F 32.0 °F 87% 29.50 in 10.0 mi SSE 12.7 mph - N/A   Overcast